• In Netherlands
  • List of Countries
  • For 7 days
  • Water Temperature
  • Satellite Maps
  • Weather Map
  • Weather Widgets
  • user-avatar
    Login

    Hourly Weather Rangpur

    Today, 28 July, Friday

    Time Temperature Precipitation Wind Pressure Humidity
    00:00 +31°C° 0 mm 2 mps 751 mmHg 75%
    01:00 +31°C° 0.3 mm 2 mps 750 mmHg 77%
    02:00 +30°C° 0.3 mm 2 mps 750 mmHg 79%
    03:00 +30°C° 0.3 mm 2 mps 750 mmHg 81%
    04:00 +30°C° 0.5 mm 1 mps 750 mmHg 82%
    05:00 +30°C° 0.5 mm 1 mps 750 mmHg 83%
    06:00 +30°C° 0 mm 1 mps 750 mmHg 83%
    07:00 +31°C° 0.1 mm 1 mps 750 mmHg 78%
    08:00 +32°C° 0.1 mm 2 mps 751 mmHg 72%
    09:00 +34°C° 0.1 mm 2 mps 751 mmHg 67%
    10:00 +35°C° 0 mm 2 mps 751 mmHg 63%
    11:00 +36°C° 0 mm 2 mps 750 mmHg 59%
    12:00 +37°C° 0 mm 2 mps 751 mmHg 55%
    13:00 +37°C° 0 mm 2 mps 750 mmHg 55%
    14:00 +37°C° 0 mm 2 mps 750 mmHg 54%
    15:00 +37°C° 0 mm 2 mps 749 mmHg 53%
    16:00 +37°C° 0 mm 2 mps 749 mmHg 56%
    17:00 +35°C° 0 mm 1 mps 749 mmHg 58%
    18:00 +35°C° 0 mm 1 mps 749 mmHg 61%
    19:00 +34°C° 0 mm 1 mps 749 mmHg 63%
    20:00 +34°C° 0 mm 1 mps 749 mmHg 64%
    21:00 +33°C° 0 mm 1 mps 750 mmHg 66%
    22:00 +33°C° 0.1 mm 1 mps 750 mmHg 68%
    23:00 +32°C° 0.1 mm 1 mps 750 mmHg 70%

    Tomorrow, 29 July, Saturday

    Time Temperature Precipitation Wind Pressure Humidity
    00:00 +32°C° 0.1 mm 1 mps 750 mmHg 72%
    01:00 +31°C° 1.6 mm 1 mps 750 mmHg 75%
    02:00 +31°C° 1.6 mm 1 mps 750 mmHg 78%
    03:00 +31°C° 1.6 mm 1 mps 750 mmHg 80%
    04:00 +31°C° 1.5 mm 1 mps 750 mmHg 81%
    05:00 +30°C° 1.5 mm 1 mps 750 mmHg 81%
    06:00 +30°C° 1.5 mm 1 mps 750 mmHg 82%
    07:00 +31°C° 1.2 mm 1 mps 750 mmHg 76%
    08:00 +32°C° 1.2 mm 1 mps 751 mmHg 71%
    09:00 +33°C° 1.2 mm 1 mps 751 mmHg 66%
    10:00 +34°C° 0.1 mm 1 mps 751 mmHg 62%
    11:00 +35°C° 0.1 mm 1 mps 750 mmHg 58%
    12:00 +37°C° 0.1 mm 2 mps 750 mmHg 54%
    13:00 +37°C° 0.1 mm 2 mps 749 mmHg 54%
    14:00 +37°C° 0.1 mm 2 mps 749 mmHg 54%
    15:00 +37°C° 0.1 mm 2 mps 748 mmHg 54%
    16:00 +37°C° 0.2 mm 2 mps 748 mmHg 57%
    17:00 +36°C° 0.2 mm 1 mps 748 mmHg 59%
    18:00 +35°C° 0.2 mm 1 mps 748 mmHg 61%
    19:00 +35°C° 0.2 mm 1 mps 748 mmHg 63%
    20:00 +35°C° 0.2 mm 2 mps 748 mmHg 65%
    21:00 +34°C° 0.2 mm 2 mps 749 mmHg 68%
    22:00 +34°C° 1 mm 2 mps 749 mmHg 70%
    23:00 +32°C° 1 mm 2 mps 749 mmHg 73%

    Day after tomorrow, 30 July, Sunday

    Time Temperature Precipitation Wind Pressure Humidity
    00:00 +32°C° 1 mm 2 mps 749 mmHg 76%
    01:00 +32°C° 1.7 mm 2 mps 749 mmHg 77%
    02:00 +31°C° 1.7 mm 2 mps 749 mmHg 79%
    03:00 +31°C° 1.7 mm 2 mps 748 mmHg 80%
    04:00 +31°C° 1.3 mm 2 mps 749 mmHg 81%
    05:00 +31°C° 1.3 mm 2 mps 749 mmHg 82%
    06:00 +30°C° 1.3 mm 3 mps 749 mmHg 82%
    07:00 +31°C° 0.9 mm 3 mps 749 mmHg 81%
    08:00 +31°C° 0.9 mm 3 mps 750 mmHg 79%
    09:00 +33°C° 0.9 mm 3 mps 750 mmHg 78%
    10:00 +34°C° 0.2 mm 3 mps 750 mmHg 73%
    11:00 +35°C° 0.2 mm 3 mps 750 mmHg 69%
    12:00 +35°C° 0.2 mm 3 mps 749 mmHg 64%
    13:00 +36°C° 0 mm 2 mps 749 mmHg 61%
    14:00 +36°C° 0 mm 2 mps 748 mmHg 58%
    15:00 +37°C° 0 mm 2 mps 747 mmHg 56%
    16:00 +36°C° 0 mm 1 mps 747 mmHg 58%
    17:00 +36°C° 0 mm 1 mps 747 mmHg 60%
    18:00 +35°C° 0 mm 1 mps 747 mmHg 62%
    19:00 +35°C° 0 mm 1 mps 747 mmHg 63%
    20:00 +34°C° 0 mm 1 mps 748 mmHg 65%
    21:00 +34°C° 0 mm 2 mps 748 mmHg 67%
    22:00 +34°C° 0.6 mm 2 mps 748 mmHg 70%
    23:00 +32°C° 0.6 mm 2 mps 748 mmHg 73%

    31 July, Monday

    Time Temperature Precipitation Wind Pressure Humidity
    00:00 +32°C° 0.6 mm 2 mps 748 mmHg 76%
    01:00 +31°C° 2.9 mm 2 mps 748 mmHg 77%
    02:00 +31°C° 2.9 mm 2 mps 748 mmHg 79%
    03:00 +31°C° 2.9 mm 2 mps 748 mmHg 81%
    04:00 +31°C° 1.2 mm 2 mps 748 mmHg 81%
    05:00 +31°C° 1.2 mm 1 mps 748 mmHg 82%
    06:00 +31°C° 1.2 mm 1 mps 748 mmHg 83%
    07:00 +32°C° 1.8 mm 1 mps 748 mmHg 78%
    08:00 +34°C° 1.8 mm 2 mps 749 mmHg 73%
    09:00 +34°C° 1.8 mm 2 mps 749 mmHg 68%
    10:00 +35°C° 0.7 mm 2 mps 749 mmHg 65%
    11:00 +36°C° 0.7 mm 2 mps 749 mmHg 61%
    12:00 +37°C° 0.7 mm 3 mps 749 mmHg 58%
    13:00 +37°C° 0.2 mm 3 mps 748 mmHg 57%
    14:00 +37°C° 0.2 mm 3 mps 747 mmHg 56%
    15:00 +38°C° 0.2 mm 2 mps 747 mmHg 55%
    16:00 +37°C° 0.3 mm 2 mps 747 mmHg 58%
    17:00 +37°C° 0.3 mm 2 mps 747 mmHg 61%
    18:00 +36°C° 0.3 mm 2 mps 746 mmHg 63%
    19:00 +36°C° 0.2 mm 2 mps 747 mmHg 66%
    20:00 +35°C° 0.2 mm 2 mps 748 mmHg 68%
    21:00 +34°C° 0.2 mm 2 mps 748 mmHg 70%
    22:00 +34°C° 1.7 mm 2 mps 748 mmHg 73%
    23:00 +33°C° 1.7 mm 3 mps 748 mmHg 76%

    1 August, Tuesday

    Time Temperature Precipitation Wind Pressure Humidity
    00:00 +33°C° 1.7 mm 3 mps 748 mmHg 79%
    01:00 +31°C° 1.7 mm 3 mps 748 mmHg 80%
    02:00 +31°C° 1.7 mm 2 mps 747 mmHg 81%
    03:00 +31°C° 1.7 mm 2 mps 747 mmHg 82%
    04:00 +31°C° 1.6 mm 2 mps 747 mmHg 83%
    05:00 +31°C° 1.6 mm 2 mps 747 mmHg 84%
    06:00 +31°C° 1.6 mm 2 mps 748 mmHg 84%
    07:00 +31°C° 2.2 mm 2 mps 748 mmHg 80%
    08:00 +32°C° 2.2 mm 2 mps 749 mmHg 76%
    09:00 +34°C° 2.2 mm 3 mps 749 mmHg 72%
    10:00 +35°C° 1 mm 3 mps 749 mmHg 68%
    11:00 +36°C° 1 mm 3 mps 748 mmHg 65%
    12:00 +37°C° 1 mm 3 mps 748 mmHg 61%
    13:00 +37°C° 0.6 mm 3 mps 748 mmHg 59%
    14:00 +37°C° 0.6 mm 3 mps 747 mmHg 58%
    15:00 +38°C° 0.6 mm 3 mps 747 mmHg 57%
    16:00 +37°C° 0.4 mm 2 mps 747 mmHg 60%
    17:00 +37°C° 0.4 mm 2 mps 746 mmHg 63%
    18:00 +35°C° 0.4 mm 1 mps 746 mmHg 66%
    19:00 +34°C° 0.6 mm 1 mps 747 mmHg 69%
    20:00 +35°C° 0.6 mm 2 mps 747 mmHg 72%
    21:00 +34°C° 0.6 mm 2 mps 748 mmHg 76%
    22:00 +32°C° 1.1 mm 2 mps 748 mmHg 77%
    23:00 +32°C° 1.1 mm 2 mps 748 mmHg 79%

    2 August, Wednesday

    Time Temperature Precipitation Wind Pressure Humidity
    00:00 +32°C° 1.1 mm 2 mps 748 mmHg 81%
    01:00 +31°C° 2.1 mm 2 mps 748 mmHg 81%
    02:00 +31°C° 2.1 mm 2 mps 747 mmHg 82%
    03:00 +31°C° 2.1 mm 2 mps 747 mmHg 82%
    04:00 +31°C° 1.1 mm 2 mps 747 mmHg 83%
    05:00 +31°C° 1.1 mm 2 mps 748 mmHg 83%
    06:00 +31°C° 1.1 mm 2 mps 748 mmHg 84%
    07:00 +31°C° 1.1 mm 2 mps 748 mmHg 82%
    08:00 +32°C° 1.1 mm 2 mps 748 mmHg 80%
    09:00 +32°C° 1.1 mm 2 mps 749 mmHg 78%
    10:00 +34°C° 1.6 mm 2 mps 748 mmHg 75%
    11:00 +34°C° 1.6 mm 2 mps 748 mmHg 72%
    12:00 +35°C° 1.6 mm 2 mps 748 mmHg 70%
    13:00 +35°C° 0.7 mm 2 mps 747 mmHg 70%
    14:00 +35°C° 0.7 mm 2 mps 747 mmHg 70%
    15:00 +35°C° 0.7 mm 2 mps 746 mmHg 70%
    16:00 +35°C° 0.1 mm 2 mps 746 mmHg 72%
    17:00 +34°C° 0.1 mm 2 mps 746 mmHg 73%
    18:00 +33°C° 0.1 mm 1 mps 746 mmHg 75%
    19:00 +33°C° 0.7 mm 1 mps 746 mmHg 77%
    20:00 +32°C° 0.7 mm 2 mps 747 mmHg 79%
    21:00 +31°C° 0.7 mm 2 mps 747 mmHg 82%
    22:00 +31°C° 2.5 mm 2 mps 747 mmHg 83%
    23:00 +31°C° 2.5 mm 2 mps 747 mmHg 84%
    Show more